sat.trackr.live / text

‹ back to catalog

STARLINK-36965

NORAD 68961 · 2026-099L

PAYLOAD ACTIVE UNKNOWN

§ Identity

Operator
Country
US
Launch date
2026-05-01
Launch site
AFETR
Launch vehicle
Mass (kg)
RCS (m²)

Purposes: comms

External: N2YO · Heavens-Above · Gunter

§ Orbital elements

Epoch: 2026-09-20T02:34:48.496800Z

Period
93.85 min
Inclination
53.1580°
Eccentricity
0.0001727
Mean motion
15.34389185 rev/d
Perigee alt
461.6 km
Apogee alt
463.9 km
Semi-major
6,840.9 km
B*
5.5229e-4
RAAN
77.6760°
Arg perigee
49.7167°
Mean anomaly
310.3987°
Rev number
2,184

§ Raw data

STARLINK-369651 68961U 26099L   26263.10750575  .00018323  00000+0  55229-3 0  99972 68961  53.1580  77.6760 0001727  49.7167 310.3987 15.34389185 21841

JSON: /api/v1/satellites/68961 · /tle

For live sub-satellite position, see the globe view (requires WebGL).

§ Visibility from observer

Set your observer location to see the next 7 days of passes ≥ 10°. The values pass through the URL so the page stays shareable.

No JS? Fill the form by hand. The geolocation button needs JavaScript.